| time (UTC) | temp F | wind direction | speed knots | gust knots | rain 1hr in | rain 24hr in | rain mn in | humidity % | barometer mb |
| 20260504204554 | 85 | 124 | 3.5 | 3.5 | 0.00 | 0.00 | 0.00 | 87 | 1009.0 |
| 20260504203055 | 85 | 124 | 3.5 | 3.5 | 0.00 | 0.00 | 0.00 | 87 | 1009.0 |
| 20260504201555 | 85 | 131 | 3.5 | 3.5 | 0.00 | 0.00 | 0.00 | 88 | 1009.0 |
| 20260504200056 | 85 | 131 | 3.5 | 3.5 | 0.00 | 0.00 | 0.00 | 87 | 1009.0 |
| 20260504194555 | 85 | 131 | 3.5 | 3.5 | 0.00 | 0.00 | 0.00 | 87 | 1009.0 |
| 20260504193055 | 85 | 131 | 3.5 | 3.5 | 0.00 | 0.00 | 0.00 | 86 | 1009.0 |
| 20260504191554 | 85 | 136 | 3.5 | 2.6 | 0.00 | 0.00 | 0.00 | 88 | 1009.0 |
| 20260504190056 | 85 | 136 | 3.5 | 2.6 | 0.00 | 0.00 | 0.00 | 87 | 1009.0 |
| 20260504184555 | 85 | 136 | 3.5 | 2.6 | 0.00 | 0.00 | 0.00 | 87 | 1009.0 |
| 20260504183055 | 85 | 136 | 3.5 | 2.6 | 0.00 | 0.00 | 0.00 | 87 | 1009.0 |
| 20260504181554 | 85 | 151 | 2.6 | 2.6 | 0.00 | 0.00 | 0.00 | 88 | 1010.0 |
| 20260504180059 | 85 | 151 | 2.6 | 2.6 | 0.00 | 0.00 | 0.00 | 88 | 1010.0 |
| 20260504174555 | 84 | 194 | 3.5 | 2.6 | 0.00 | 0.00 | 0.00 | 89 | 1010.0 |
| 20260504173055 | 85 | 194 | 3.5 | 2.6 | 0.01 | 0.00 | 0.00 | 89 | 1010.0 |
| 20260504171554 | 85 | 204 | 2.6 | 1.7 | 0.00 | 0.00 | 0.00 | 89 | 1011.0 |
| 20260504081512 | 86 | 46 | 1.7 | 1.7 | 0.00 | 0.00 | 0.00 | 76 | 1008.0 |
| 20260504050011 | 86 | 46 | 1.7 | 1.7 | 0.00 | 0.00 | 0.00 | 76 | 1010.0 |
| 20260504044511 | 86 | 46 | 1.7 | 1.7 | 0.00 | 0.00 | 0.00 | 76 | 1010.0 |
| 20260504043011 | 86 | 46 | 1.7 | 1.7 | 0.00 | 0.00 | 0.00 | 76 | 1010.0 |
| 20260504041512 | 86 | 46 | 1.7 | 1.7 | 0.00 | 0.00 | 0.00 | 76 | 1011.0 |
| 20260504040011 | 86 | 46 | 1.7 | 1.7 | 0.00 | 0.00 | 0.00 | 76 | 1011.0 |
| 20260504034511 | 86 | 46 | 1.7 | 1.7 | 0.00 | 0.00 | 0.00 | 76 | 1011.0 |
| 20260504033011 | 86 | 46 | 1.7 | 1.7 | 0.00 | 0.00 | 0.00 | 76 | 1011.0 |
| 20260504031511 | 86 | 46 | 1.7 | 1.7 | 0.00 | 0.00 | 0.00 | 76 | 1012.0 |
| 20260504030012 | 86 | 46 | 1.7 | 1.7 | 0.00 | 0.00 | 0.00 | 76 | 1012.0 |
| 20260504024511 | 86 | 46 | 1.7 | 1.7 | 0.00 | 0.00 | 0.00 | 76 | 1012.0 |
| 20260504023012 | 86 | 46 | 1.7 | 1.7 | 0.00 | 0.00 | 0.00 | 76 | 1012.0 |
| 20260504021511 | 86 | 46 | 1.7 | 1.7 | 0.00 | 0.00 | 0.00 | 76 | 1012.0 |
| 20260504020012 | 86 | 46 | 1.7 | 1.7 | 0.00 | 0.00 | 0.00 | 76 | 1012.0 |
| 20260504014512 | 86 | 46 | 1.7 | 1.7 | 0.00 | 0.00 | 0.00 | 76 | 1012.0 |
| 20260504013057 | 86 | 46 | 1.7 | 1.7 | 0.01 | 0.00 | 0.00 | 76 | 1012.0 |
| 20260504011557 | 87 | 65 | 0.9 | 1.7 | 0.00 | 0.00 | 0.00 | 81 | 1011.0 |
| 20260504010058 | 86 | 65 | 0.9 | 1.7 | 0.00 | 0.00 | 0.00 | 79 | 1011.0 |
| 20260504004556 | 85 | 65 | 0.9 | 1.7 | 0.00 | 0.00 | 0.00 | 79 | 1011.0 |
| 20260504003057 | 85 | 65 | 0.9 | 1.7 | 0.00 | 0.00 | 0.00 | 79 | 1011.0 |
| 20260504001556 | 85 | 156 | 1.7 | 1.7 | 0.00 | 0.00 | 0.00 | 83 | 1011.0 |
| 20260504000059 | 85 | 156 | 1.7 | 1.7 | 0.00 | 0.00 | 0.00 | 83 | 1011.0 |
| 20260503234556 | 85 | 107 | 2.6 | 2.6 | 0.00 | 0.00 | 0.00 | 85 | 1010.0 |
| 20260503233056 | 85 | 107 | 2.6 | 2.6 | 0.00 | 0.00 | 0.00 | 84 | 1010.0 |
| 20260503231556 | 85 | 125 | 1.7 | 2.6 | 0.00 | 0.00 | 0.00 | 88 | 1010.0 |
| 20260503230058 | 84 | 125 | 1.7 | 2.6 | 0.00 | 0.00 | 0.00 | 86 | 1010.0 |
| 20260503224556 | 84 | 125 | 1.7 | 2.6 | 0.00 | 0.00 | 0.00 | 87 | 1010.0 |
| 20260503223058 | 84 | 125 | 1.7 | 2.6 | 0.00 | 0.00 | 0.00 | 85 | 1010.0 |
| 20260503221556 | 84 | 154 | 1.7 | 2.6 | 0.00 | 0.00 | 0.00 | 88 | 1010.0 |
| 20260503220057 | 84 | 154 | 1.7 | 2.6 | 0.00 | 0.00 | 0.00 | 86 | 1010.0 |
| 20260503214556 | 84 | 154 | 1.7 | 2.6 | 0.00 | 0.00 | 0.00 | 86 | 1010.0 |
| 20260503213058 | 84 | 154 | 1.7 | 2.6 | 0.00 | 0.00 | 0.00 | 85 | 1010.0 |
| 20260503211556 | 85 | 164 | 2.6 | 2.6 | 0.00 | 0.00 | 0.00 | 88 | 1010.0 |
| 20260503210058 | 85 | 164 | 2.6 | 2.6 | 0.00 | 0.00 | 0.00 | 86 | 1010.0 |